Annette Island, AK

11:16 AM AKDT on July 28, 2017 (GMT -0800)
Annette Island

Weather History for PANT - October, 2012

Change the Weather History Date:

Monday, October 15, 2012

  Actual Average Record
Temperature  
Mean Temperature 50 °F 47 °F  
Max Temperature 51 °F 52 °F 64 °F (1969)
Min Temperature 49 °F 42 °F 26 °F (1992)
Degree Days  
Heating Degree Days 15 18  
Month to date heating degree days 199 242  
Since 1 July heating degree days 992 977  
Cooling Degree Days 0    
Month to date cooling degree days 0  
Year to date cooling degree days 7  
Moisture  
Dew Point 46 °F    
Average Humidity 0    
Maximum Humidity 0    
Minimum Humidity 0    
Precipitation  
Precipitation 0.44 in 0.46 in 2.22 in (1954)
Month to date precipitation 3.29 6.31  
Year to date precipitation 80.47 71.01  
Snow  
Snow 0.00 in 0.00 in 0.00 in (2015)
Month to date snowfall 0.0 0.0  
Since 1 July snowfall 0.0 0.0  
Since 1 September snowfall 0.0 0.0  
Snow Depth 0.00 in    
Sea Level Pressure  
Sea Level Pressure 29.33 in    
Wind  
Wind Speed 11 mph (SE)    
Max Wind Speed 23 mph    
Max Gust Speed 32 mph    
Visibility 9 miles    
Events Rain    
T = Trace of Precipitation, MM = Missing Value Source: NWS Daily Summary

Daily Weather History Graph

Daily Weather History Graph

Search for Another Location

Airport or City:

Trip Planner

Search our weather history database for the weather conditions in past years. The results will help you decide how hot, cold, wet, or windy it might be!

Date:

Astronomy

Oct. 15, 2012 Rise Set
Actual Time 7:17 AM AKDT 5:45 PM AKDT
Civil Twilight 6:40 AM AKDT 6:22 PM AKDT
Nautical Twilight 5:58 AM AKDT 7:04 PM AKDT
Astronomical Twilight 5:16 AM AKDT 7:46 PM AKDT
Moon 7:47 AM AKDT (10/15) 5:34 PM AKDT (10/15)
Length of Visible Light 11h 41m
Length of Day
10h 28m
New Moon, 0% of the Moon is Illuminated
Oct 15
New Moon
Oct 21
First Quarter
Oct 29
Full
Nov 6
Last Quarter
Nov 13
New

Hourly Weather History & Observations

Time (AKDT) Temp. Windchill Dew Point Humidity Pressure Visibility Wind Dir Wind Speed Gust Speed Precip Events Conditions
12:53 AM 50.0 °F - 46.0 °F 86% 29.58 in 10.0 mi South 9.2 mph - 0.00 in Rain Light Rain
1:53 AM 48.9 °F - 46.0 °F 90% 29.59 in 7.0 mi Variable 6.9 mph - 0.02 in Rain Light Rain
2:53 AM 48.9 °F - 46.0 °F 90% 29.57 in 10.0 mi SE 5.8 mph - 0.00 in   Overcast
3:53 AM 50.0 °F - 46.0 °F 86% 29.56 in 10.0 mi SE 8.1 mph - N/A   Overcast
4:01 AM 50.0 °F - 46.4 °F 87% 29.55 in 10.0 mi ESE 10.4 mph - N/A   Overcast
4:12 AM 50.0 °F - 46.4 °F 87% 29.55 in 10.0 mi SE 11.5 mph - N/A   Overcast
4:21 AM 50.0 °F - 48.2 °F 94% 29.55 in 10.0 mi SE 11.5 mph - N/A   Overcast
4:34 AM 50.0 °F - 48.2 °F 94% 29.55 in 10.0 mi SE 9.2 mph - 0.00 in Rain Light Rain
4:53 AM 51.1 °F - 48.0 °F 89% 29.55 in 10.0 mi SE 11.5 mph - 0.00 in Rain Light Rain
5:09 AM 51.8 °F - 48.2 °F 88% 29.53 in 10.0 mi SE 11.5 mph 23.0 mph 0.00 in Rain Light Rain
5:50 AM 51.8 °F - 48.2 °F 88% 29.52 in 10.0 mi SE 12.7 mph 19.6 mph 0.00 in   Overcast
5:53 AM 51.1 °F - 48.0 °F 89% 29.52 in 10.0 mi SSE 11.5 mph 18.4 mph 0.00 in   Overcast
6:22 AM 50.0 °F - 48.2 °F 94% 29.50 in 5.0 mi SSE 12.7 mph 20.7 mph 0.02 in Rain Light Rain
6:29 AM 50.0 °F - 48.2 °F 94% 29.50 in 7.0 mi SSE 13.8 mph 21.9 mph 0.03 in Rain Light Rain
6:36 AM 50.0 °F - 48.2 °F 94% 29.49 in 10.0 mi SE 11.5 mph 21.9 mph 0.03 in Rain Light Rain
6:53 AM 50.0 °F - 48.0 °F 93% 29.49 in 9.0 mi SE 12.7 mph 23.0 mph 0.04 in Rain Light Rain
7:53 AM 50.0 °F - 46.9 °F 89% 29.46 in 9.0 mi SE 16.1 mph 27.6 mph 0.03 in Rain Light Rain
8:31 AM 51.8 °F - 46.4 °F 82% 29.43 in 10.0 mi SE 18.4 mph 32.2 mph 0.02 in Rain Light Rain
8:41 AM 51.8 °F - 46.4 °F 82% 29.42 in 10.0 mi SE 21.9 mph 32.2 mph 0.02 in Rain Light Rain
8:53 AM 51.1 °F - 46.0 °F 83% 29.42 in 10.0 mi SE 20.7 mph 31.1 mph 0.02 in   Overcast
9:44 AM 50.0 °F - 46.4 °F 87% 29.39 in 10.0 mi ESE 16.1 mph 24.2 mph 0.00 in Rain Light Rain
9:53 AM 50.0 °F - 46.0 °F 86% 29.39 in 10.0 mi SE 15.0 mph 24.2 mph 0.00 in   Overcast
10:53 AM 50.0 °F - 46.0 °F 86% 29.37 in 9.0 mi SE 15.0 mph 26.5 mph 0.00 in Rain Light Rain
11:32 AM 50.0 °F - 46.4 °F 87% 29.33 in 6.0 mi SE 16.1 mph 27.6 mph 0.04 in Rain Light Rain
11:53 AM 48.9 °F - 46.9 °F 93% 29.33 in 5.0 mi SE 15.0 mph 24.2 mph 0.06 in Rain Rain
12:24 PM 48.2 °F - 46.4 °F 93% 29.30 in 8.0 mi ESE 17.3 mph 25.3 mph 0.05 in Rain Light Rain
12:41 PM 48.2 °F - 46.4 °F 93% 29.28 in 6.0 mi ESE 12.7 mph 23.0 mph 0.07 in Rain Light Rain
12:48 PM 48.2 °F - 46.4 °F 93% 29.27 in 7.0 mi ESE 13.8 mph 21.9 mph 0.08 in Rain Light Rain
12:53 PM 48.9 °F - 46.0 °F 90% 29.27 in 6.0 mi ESE 13.8 mph 21.9 mph 0.08 in Rain Light Rain
1:53 PM 48.9 °F - 45.0 °F 86% 29.21 in 7.0 mi ESE 12.7 mph 20.7 mph 0.09 in Rain Rain
2:53 PM 48.9 °F - 45.0 °F 86% 29.16 in 8.0 mi ESE 11.5 mph - 0.07 in Rain Light Rain
3:53 PM 50.0 °F - 44.1 °F 80% 29.11 in 10.0 mi ESE 8.1 mph 21.9 mph 0.03 in Rain Light Rain
4:53 PM 48.9 °F - 44.1 °F 83% 29.06 in 9.0 mi Calm Calm - 0.02 in Rain Light Rain
5:53 PM 46.9 °F - 45.0 °F 93% 29.05 in 5.0 mi Calm Calm - 0.13 in Rain Rain
6:53 PM 46.0 °F 44.8 °F 45.0 °F 96% 29.04 in 5.0 mi Variable 3.5 mph - 0.15 in Rain Rain
7:53 PM 46.9 °F - 46.0 °F 97% 29.03 in 8.0 mi NW 3.5 mph - 0.09 in Rain Light Rain
8:24 PM 46.4 °F 43.5 °F 44.6 °F 93% 29.03 in 10.0 mi NW 5.8 mph - 0.02 in Rain Light Rain
8:53 PM 46.0 °F 41.9 °F 45.0 °F 96% 29.04 in 10.0 mi WNW 8.1 mph - 0.04 in Rain Light Rain
9:26 PM 44.6 °F 40.7 °F 44.6 °F 100% 29.04 in 10.0 mi WNW 6.9 mph - 0.02 in Rain Light Rain
9:53 PM 46.0 °F 41.4 °F 45.0 °F 96% 29.06 in 10.0 mi WNW 9.2 mph - 0.03 in Rain Light Rain
10:04 PM 44.6 °F 39.7 °F 44.6 °F 100% 29.07 in 10.0 mi WNW 9.2 mph - 0.00 in Rain Light Rain
10:18 PM 44.6 °F 40.2 °F 44.6 °F 100% 29.08 in 10.0 mi NW 8.1 mph - 0.01 in Rain Light Rain
10:29 PM 44.6 °F 38.1 °F 44.6 °F 100% 29.09 in 10.0 mi NW 13.8 mph 20.7 mph 0.02 in Rain Light Rain
10:53 PM 45.0 °F 41.2 °F 44.1 °F 97% 29.12 in 10.0 mi WNW 6.9 mph - 0.02 in Rain Light Rain
11:53 PM 45.0 °F 43.5 °F 43.0 °F 93% 29.18 in 10.0 mi West 3.5 mph - 0.01 in   Overcast